Skip Page Navigation
NASA JPL Caltech
NASA Logo - Jet Propulsion Laboratory + View the NASA Portal
+ Near-Earth Object (NEO) Program
Search JPL
JPL Home Earth Solar System Stars & Galaxies Technology
JPL Solar System Dynamics
BODIES ORBITS EPHEMERIDES TOOLS PHYSICAL DATA DISCOVERY FAQ SITE MAP
JPL Small-Body Database Browser
Search: [ help ]  
(2003 YL118)
Classification: Apollo [NEO, PHA]          SPK-ID: 3170231
Ephemeris | Orbit Diagram | Orbital Elements | Physical Parameters | Close-Approach Data ]

[ hide orbit diagram ]
Orbit Diagram
Note: Make sure you have Java enabled on your browser to see the applet. This applet is provided as a 3D orbit visualization tool. The applet was implemented using 2-body methods, and hence should not be used for determining accurate long-term trajectories (over several years or decades) or planetary encounter circumstances. For accurate long-term ephemerides, please instead use our Horizons system.
Orbit Viewer

Additional Notes: the orbits shown in the applet are color coded. The planets are white lines, and the asteroid/comet is a blue line. The bright white line indicates the portion of the orbit that is above the ecliptic plane, and the darker portion is below the ecliptic plane. Likewise for the asteroid/comet orbit, the light blue indicates the portion above the ecliptic plane, and the dark blue the portion below the ecliptic plane.

Orbit Viewer applet originally written and kindly provided by Osamu Ajiki (AstroArts), and further modified by Ron Baalke (JPL).


Orbital Elements at Epoch 2456400.5 (2013-Apr-18.0) TDB
Reference: JPL 12 (heliocentric ecliptic J2000)
 Element Value Uncertainty (1-sigma)   Units 
e .486065036092127 4.9808e-06  
a 1.130083667985892 5.9139e-09 AU
q .580789509119206 5.6305e-06 AU
i 7.612238211187692 6.9767e-05 deg
node 278.8063380505241 3.805e-05 deg
peri 65.61452466026601 0.00041082 deg
M 321.2876822434296 0.0002016 deg
tp 2456447.685764708312
(2013-Jun-04.18576471)
0.00024558 JED
period 438.7976819628477
1.20
3.4445e-06
9.431e-09
d
yr
n .820423659463362 6.4401e-09 deg/d
Q 1.679377826852578 8.7885e-09 AU
  Orbit Determination Parameters
   # obs. used (total)      87  
   data-arc span      2201 days (6.03 yr)  
   first obs. used      2003-12-28  
   last obs. used      2010-01-06  
   planetary ephem.      DE405  
   SB-pert. ephem.      SB405-CPV-2  
   condition code      0  
   fit RMS      .57928  
   data source      ORB  
   producer      Otto Matic  
   solution date      2011-Sep-14 19:53:47  

Additional Information
 Earth MOID = .0215009 AU 
 T_jup = 5.412 
[ show covariance matrix ]

Ephemeris | Orbit Diagram | Orbital Elements | Physical Parameters | Close-Approach Data ]

Physical Parameter Table
Parameter Symbol Value Units Sigma Reference Notes
absolute magnitude H 21.558 mag .52531 12 autocmod 2.5a

[ show close-approach data ]
Ephemeris | Orbit Diagram | Orbital Elements | Physical Parameters | Close-Approach Data ]
ABOUT SSD CREDITS/AWARDS PRIVACY/COPYRIGHT GLOSSARY LINKS
FirstGov 2013-May-23 18:31 UT
(server date/time)  
NASA Home Page
Site Manager:   Donald K. Yeomans
Webmaster  Alan B. Chamberlin